Regional Weather Roundup
Issued by NWS

Home | Current Version | Previous Version | Text Only | Print | Product List | Glossary On
Versions: 1 2 3 4 5 6 7 8 9 10 11 12 13 14 15 16 17 18 19 20 21 22 23 24 25 26 27 28 29 30 31 32 33 34 35 36 37 38 39 40 41 42 43 44 45 46 47 48 49 50
000
ASUS43 KDTX 271710
RWRMI
MICHIGAN HOURLY REGIONAL WEATHER ROUNDUP
NATIONAL WEATHER SERVICE DETROIT/PONTIAC MI
100 PM EDT TUE JUN 27 2017

NOTE: "FAIR" INDICATES FEW OR NO CLOUDS BELOW 12,000 FEET WITH NO
SIGNIFICANT WEATHER AND/OR OBSTRUCTION TO VISIBILITY.

MIZ047>049-052>055-059>063-066>070-074>076-081>083-271800-
SOUTHEAST LOWER MICHIGAN

CITY           SKY/WX    TMP DP  RH WIND       PRES   REMARKS
ADRIAN         PTSUNNY   69  43  38 NW12G17   30.10F
ALMA           CLOUDY    69  46  43 W15G21    30.06F
ANN ARBOR      MOSUNNY   69  47  45 W10G18    30.08F
BAD AXE        PTSUNNY   66  49  53 W9G18     30.04S
CARO           PTSUNNY   69  50  50 W12G21    30.03F
DETROIT CITY   PTSUNNY   67  43  41 W9        30.07S
DETROIT        PTSUNNY   70  45  40 W13G20    30.08F
FLINT          MOSUNNY   69  45  41 NW15G23   30.06F
GROSSE ILE     MOSUNNY   68  45  42 W8G17     30.07F
HILLSDALE      PTSUNNY   68  45  42 W12G18    30.10F
HOWELL         PTSUNNY   68  41  37 W10       30.07F

CITY           SKY/WX    TMP DP  RH WIND       PRES   REMARKS
JACKSON        PTSUNNY   69  46  43 NW12      30.09F
LAMBERTVILLE   MOSUNNY   69  41  36 NW6       30.10S
LANSING        PTSUNNY   71  45  39 W14G22    30.08F
LAPEER         PTSUNNY   67  44  43 W13       30.05F
MASON          PTSUNNY   68  47  46 W6        30.08F
MONROE         PTSUNNY   69  45  41 W8G17     30.09S
MT. CLEMENS    MOSUNNY   68  46  45 W15G22    30.04S
PONTIAC        PTSUNNY   67  43  41 SW12G22   30.06S
PORT HOPE        N/A     67  49  52 NW12G20   30.00F
PORT HURON     PTSUNNY   66  46  48 NW6G17    30.04F
TRI CITIES     PTSUNNY   68  49  50 W16       30.04F
MIDLAND        FAIR      70  47  43 W9        30.03F
TROY           PTSUNNY   68  39  34 W6        30.08F
SAGINAW HB     PTSUNNY   70  43  37 W13G24    30.04F
$$
MIZ043>046-050>051-056>058-064>065-071>073-077>080-271800-
SOUTHWEST LOWER MICHIGAN

CITY           SKY/WX    TMP DP  RH WIND       PRES   REMARKS
BATTLE CREEK   PTSUNNY   69  46  43 W14       30.10F
BENTON HARBOR  SUNNY     70  47  43 W13       30.13S
BIG RAPIDS     PTSUNNY   67  45  45 NW7G21    30.05F
COLDWATER      MOSUNNY   69  44  39 W9G18     30.11F
FREMONT        FAIR      70  46  42 W9G21     30.06F
HOLLAND        SUNNY     68  50  52 W15       30.11S
GRAND RAPIDS   PTSUNNY   69  49  48 W12       30.08F
IONIA          PTSUNNY   69  45  42 W10G16    30.07F
KALAMAZOO      PTSUNNY   70  43  37 W13G22    30.11F
LUDINGTON      MOSUNNY   63  56  76 SW8       30.06F
MARSHALL       PTSUNNY   69  45  41 W9G17     30.09F
MOUNT PLEASANT MOSUNNY   69  47  45 W9        30.04F
MUSKEGON       MOSUNNY   68  53  58 W10       30.09F
SOUTH HAVEN    SUNNY     68  53  59 SW9       30.12S
$$
MIZ016>042-271800-
NORTHERN LOWER MICHIGAN

CITY           SKY/WX    TMP DP  RH WIND       PRES   REMARKS
ALPENA         MOSUNNY   68  50  52 W8        29.99F
BEAVER ISLAND  MOSUNNY   64  47  54 W5        30.02S
BELLAIRE       MOSUNNY   66  49  54 W6        30.03S
CADILLAC       MOSUNNY   68  49  50 W12       30.04S
CHARLEVOIX     MOSUNNY   64  52  65 W9        30.05F
FRANKFORT      SUNNY     62  52  69 W6        30.05S
GAYLORD        PTSUNNY   64  44  48 W6        30.02S
GRAYLING       PTSUNNY   66  47  51 W10G18    30.03S
HARBOR SPRINGS MOSUNNY   62  53  71 SW7       30.02S
HOUGHTON LAKE  PTSUNNY   69  47  45 NW8       30.03F
MANISTEE       SUNNY     64  53  67 W9        30.05S
OSCODA         PTSUNNY   72  42  33 W7G20     29.99F
PELLSTON       MOSUNNY   67  45  45 W8        30.01S
ROGERS CITY    PTSUNNY   61  51  70 N7        30.00F
TRAVERSE CITY  PTSUNNY   69  47  45 W14       30.01F
$$
MIZ007>008-015-271800-
EASTERN UPPER MICHIGAN

CITY           SKY/WX    TMP DP  RH WIND       PRES   REMARKS
KINROSS        MOSUNNY   64  46  52 NW13      29.98F
MACKINAC ISLAN CLOUDY    61  53  75 W9G16     30.00S
NEWBERRY       CLOUDY    64  47  54 NW6       29.99S
S. S. MARIE    SUNNY     65  49  56 W8        29.97F
MUNISING         N/A     60  52  74 NE7       30.01S
$$
MIZ004>006-011>014-085-271800-
CENTRAL UPPER MICHIGAN

CITY           SKY/WX    TMP DP  RH WIND       PRES   REMARKS
MANISTIQUE     CLOUDY    63  50  61 S8        30.00F
ESCANABA       PTSUNNY   65  55  70 SE12      30.00F
$$
MIZ001>003-009>011-084-271800-
WESTERN UPPER MICHIGAN

CITY           SKY/WX    TMP DP  RH WIND       PRES   REMARKS
IRON MOUNTAIN  PTSUNNY   70  47  43 W9        30.00F
HOUGHTON       CLOUDY    67  49  52 W12       29.98F
COPPER HARBOR    N/A     60  53  77 N12       29.96F
IRONWOOD       MOSUNNY   69  45  41 W12G17    30.01F
$$

ABBREVIATIONS USED IN REMARKS
   TC - TEMPERATURE IN CELSIUS
  WCI - WIND CHILL INDEX
   HX - HEAT INDEX
  VSB - VISIBILITY




USA.gov is the U.S. government's official web portal to all federal, state and local government web resources and services.